Del Rio, TX

4:51 AM CDT on April 19, 2018 (GMT -0500)
Del Rio International

Weather History for KDRT - October, 2013

Change the Weather History Date:

Tuesday, October 29, 2013

  Actual Average Record
Temperature  
Mean Temperature 78 °F 68 °F  
Max Temperature 82 °F 79 °F 88 °F (1979)
Min Temperature 74 °F 57 °F 34 °F (2017)
Degree Days  
Heating Degree Days 0 2  
Month to date heating degree days 9 17  
Since 1 July heating degree days 9 18  
Cooling Degree Days 13 4  
Month to date cooling degree days 220 222  
Year to date cooling degree days 3680 3317  
Growing Degree Days 28 (Base 50)    
Moisture  
Dew Point 69 °F    
Average Humidity 77    
Maximum Humidity 87    
Minimum Humidity 67    
Precipitation  
Precipitation 0.00 in 0.03 in 0.96 in (1907)
Month to date precipitation 1.40 2.15  
Year to date precipitation 14.33 17.86  
Sea Level Pressure  
Sea Level Pressure 29.94 in    
Wind  
Wind Speed 12 mph (SE)    
Max Wind Speed 21 mph    
Max Gust Speed 25 mph    
Visibility 10 miles    
Events      
T = Trace of Precipitation, MM = Missing Value Source: NWS Daily Summary

Daily Weather History Graph

Daily Weather History Graph

Search for Another Location

Airport or City:

Astronomy

Oct. 29, 2013 Rise Set
Actual Time 7:54 AM CDT 6:59 PM CDT
Civil Twilight 7:30 AM CDT 7:24 PM CDT
Nautical Twilight 7:02 AM CDT 7:52 PM CDT
Astronomical Twilight 6:34 AM CDT 8:19 PM CDT
Moon 3:08 AM CDT (10/29) 3:54 PM CDT (10/29)
Length of Visible Light 11h 53m
Length of Day
11h 04m
Waning Crescent, 25% of the Moon is Illuminated
Oct 29
Waning Crescent
Nov 3
New
Nov 9
First Quarter
Nov 17
Full
Nov 25
Last Quarter

Hourly Weather History & Observations

Time (CDT) Temp. Heat Index Dew Point Humidity Pressure Visibility Wind Dir Wind Speed Gust Speed Precip Events Conditions
12:53 AM 75.9 °F - 66.9 °F 74% 29.94 in 10.0 mi ESE 13.8 mph - N/A   Partly Cloudy
1:53 AM 75.0 °F - 66.9 °F 76% 29.94 in 10.0 mi ESE 11.5 mph 21.9 mph N/A   Mostly Cloudy
2:53 AM 73.9 °F - 68.0 °F 82% 29.93 in 10.0 mi ESE 15.0 mph 21.9 mph N/A   Mostly Cloudy
3:02 AM 75.2 °F - 68.0 °F 78% 29.98 in 10.0 mi ESE 13.8 mph 20.7 mph N/A   Mostly Cloudy
3:53 AM 75.0 °F - 69.1 °F 82% 29.92 in 10.0 mi ESE 13.8 mph 20.7 mph N/A   Overcast
4:53 AM 75.0 °F - 69.1 °F 82% 29.93 in 10.0 mi SE 10.4 mph - N/A   Overcast
5:53 AM 73.9 °F - 69.1 °F 85% 29.94 in 10.0 mi SE 11.5 mph - N/A   Overcast
6:53 AM 73.9 °F - 70.0 °F 87% 29.94 in 10.0 mi ESE 13.8 mph 24.2 mph N/A   Overcast
7:03 AM 73.4 °F - 69.8 °F 88% 29.99 in 10.0 mi SE 11.5 mph 24.2 mph N/A   Overcast
7:37 AM 73.4 °F - 69.8 °F 88% 29.99 in 10.0 mi ESE 11.5 mph 18.4 mph N/A   Overcast
7:53 AM 73.9 °F - 70.0 °F 87% 29.95 in 10.0 mi ESE 10.4 mph 18.4 mph N/A   Overcast
8:09 AM 73.4 °F - 69.8 °F 88% 29.99 in 10.0 mi ESE 12.7 mph 20.7 mph N/A   Mostly Cloudy
8:39 AM 73.4 °F - 69.8 °F 88% 29.99 in 10.0 mi ESE 9.2 mph - N/A   Mostly Cloudy
8:53 AM 75.0 °F - 70.0 °F 84% 29.95 in 10.0 mi ESE 10.4 mph - N/A   Overcast
9:24 AM 75.2 °F - 69.8 °F 83% 30.01 in 10.0 mi ESE 12.7 mph 18.4 mph N/A   Overcast
9:53 AM 75.9 °F - 70.0 °F 82% 29.97 in 10.0 mi ESE 15.0 mph 20.7 mph N/A   Overcast
10:53 AM 75.9 °F - 70.0 °F 82% 29.98 in 10.0 mi SE 12.7 mph 21.9 mph N/A   Overcast
11:00 AM 75.2 °F - 69.8 °F 83% 30.02 in 10.0 mi SE 12.7 mph 20.7 mph N/A   Overcast
11:53 AM 78.1 °F - 70.0 °F 76% 29.97 in 10.0 mi SE 15.0 mph - N/A   Overcast
12:53 PM 78.1 °F - 70.0 °F 76% 29.96 in 10.0 mi SE 16.1 mph 23.0 mph N/A   Overcast
1:53 PM 80.1 °F 82.9 °F 69.1 °F 69% 29.91 in 10.0 mi SE 16.1 mph - N/A   Overcast
2:04 PM 80.6 °F 83.9 °F 69.8 °F 70% 29.95 in 10.0 mi SSE 17.3 mph 25.3 mph N/A   Overcast
2:53 PM 81.0 °F 84.1 °F 69.1 °F 67% 29.88 in 10.0 mi SE 15.0 mph 19.6 mph N/A   Overcast
3:53 PM 81.0 °F 83.8 °F 68.0 °F 65% 29.87 in 10.0 mi SE 16.1 mph - N/A   Overcast
4:53 PM 81.0 °F 83.8 °F 68.0 °F 65% 29.87 in 10.0 mi SE 11.5 mph - N/A   Overcast
5:53 PM 80.1 °F 82.7 °F 68.0 °F 67% 29.86 in 10.0 mi ESE 9.2 mph - N/A   Overcast
6:53 PM 80.1 °F 82.7 °F 68.0 °F 67% 29.87 in 10.0 mi ESE 10.4 mph - N/A   Overcast
7:53 PM 79.0 °F - 68.0 °F 69% 29.87 in 10.0 mi ESE 8.1 mph - N/A   Scattered Clouds
8:53 PM 78.1 °F - 68.0 °F 71% 29.89 in 10.0 mi East 8.1 mph - N/A   Mostly Cloudy
9:53 PM 78.1 °F - 68.0 °F 71% 29.90 in 10.0 mi SE 5.8 mph - N/A   Partly Cloudy
10:53 PM 75.9 °F - 68.0 °F 76% 29.90 in 10.0 mi ESE 5.8 mph - N/A   Partly Cloudy
11:53 PM 77.0 °F - 68.0 °F 74% 29.91 in 10.0 mi ESE 5.8 mph - N/A   Overcast